User: anonymous   Login
Location: Unspecified
(0.0000°N, 0.0000°E)
Time: 22:33:20
(UTC+00:00)
Language:

Cosmos 1249 - Orbit

View from above orbital plane
View from above orbital plane
View from above satellite
View from above satellite

Ground track
Ground track

The orbit data is extracted from the following two-line orbital elements,

1 12319U 81021A   18202.94646608 -.00000102 +00000-0 -10392-4 0  9998
2 12319 064.9648 102.2687 0039000 142.5654 217.8136 13.86605241894511
Epoch (UTC): 21 July 2018 22:42:54
Eccentricity: 0.0039000
inclination: 64.9648°
perigee height: 912 km
apogee height: 969 km
right ascension of ascending node: 102.2687°
argument of perigee: 142.5654°
revolutions per day: 13.86605241
mean anomaly at epoch: 217.8136°
orbit number at epoch: 89451

The dashed part of the orbit path shows where the satellite is in the earth's shadow,  

DLR